Location: G�migny
(47.9646°N, 1.6950°E)
Time: 01:41:12
(UTC+00:00)

SJ 16-02 - Pass Details

Date: 23 October 2019
Orbit: 607 x 616 km, 75.0° (Epoch: 11 November)

Event Time Altitude Azimuth Distance (km) Brightness Sun altitude
Rises 18:49:12 0° 340° (NNW) 2,880 5.1 -20.5°
Reaches altitude 10° 18:51:28 10° 342° (NNW) 1,970 4.2 -20.9°
Maximum altitude 18:55:51 75° 68° (ENE) 635 1.2 -21.6°
Enters shadow 18:56:28 62° 126° (SE) 685 1.2 -21.7°
